Home > Time Zones > World Clock > Weather > Fiji > Nadi > Past weeks

Flag for Fiji Weather past 2 weeks in Nadi, Fiji

Now
81 °F

Passing clouds.


Feels Like: 83 °F
Forecast: 72 / 82 °F
Wind: 14 mph from Southeast

Location: Nandi

Current Time: May 26, 2015 at 2:48:34 PM

Latest Report: May 26, 2015 at 2:00 PM


Visibility: N/A

Pressure: 29.98 "Hg

Humidity: 62%

Dew point: 66 °F

Location of NadiLocation

Historic Weather in Nadi — Graph

°F

Nadi temperature yesterday

Maximum temperature yesterday: 88 °F (at 2:00 PM)
Minimum temperature yesterday: 66 °F (at 6:00 AM)
Average temperature yesterday: 76 °F

Past Weeks' High & Low Weather Summary

 TemperatureHumidityPressure
High88 °F (May 12, 2:00 PM)100% (May 12, 12:00 AM)30.07 "Hg (May 12, 12:00 AM)
Low59 °F (May 19, 6:00 AM)45% (May 18, 1:00 PM)29.80 "Hg (May 11, 2:00 PM)
Average75 °F75%29.96 "Hg
* Reported May 11 2:00 PM — May 26 2:00 PM, Nadi, Weather by CustomWeather, © 2015

Note: Actual official high and low records may vary slightly from our data, if they occured in-between our weather recording intervals... More about our weather records

Advertising

Nadi weather history for previous 24 hours

 ConditionsComfort  
Time TempWeatherWind HumidityBarometerVisibility
2:00 PM
Tue, May 26
81 °FPassing clouds.14 mph62%29.98 "HgN/A
1:00 PM82 °FScattered clouds.14 mph62%30.01 "HgN/A
12:00 PM81 °FScattered clouds.14 mph66%30.04 "HgN/A
11:00 AM81 °FPassing clouds.15 mph62%30.04 "HgN/A
10:00 AM81 °FPassing clouds.14 mph66%30.07 "HgN/A
9:00 AM77 °FPassing clouds.13 mph74%30.04 "HgN/A
8:00 AM73 °FPassing clouds.6 mph83%30.04 "HgN/A
7:00 AM70 °FPassing clouds.6 mph88%30.04 "HgN/A
6:00 AM70 °FPassing clouds.6 mph88%30.04 "HgN/A
5:00 AM68 °FPassing clouds.6 mph94%30.01 "HgN/A
4:00 AM70 °FPassing clouds.3 mph94%30.01 "HgN/A
3:00 AM70 °FPassing clouds.5 mph94%30.01 "HgN/A
2:00 AM70 °FPassing clouds.6 mph94%30.04 "HgN/A
1:00 AM72 °FPassing clouds.6 mph88%30.04 "HgN/A
12:00 AM70 °FPassing clouds.6 mph88%30.04 "HgN/A
11:00 PM
Mon, May 25
72 °FPassing clouds.8 mph88%30.07 "HgN/A
10:00 PM72 °FPassing clouds.6 mph83%30.04 "HgN/A
9:00 PM73 °FPassing clouds.6 mph78%30.04 "HgN/A
8:00 PM75 °FPassing clouds.7 mph74%30.04 "HgN/A
7:00 PM77 °FPassing clouds.8 mph69%30.01 "HgN/A
6:00 PM79 °FPassing clouds.10 mph65%29.98 "HgN/A
5:00 PM81 °FScattered clouds.14 mph62%29.95 "HgN/A
4:00 PM86 °FScattered clouds.13 mph52%29.95 "HgN/A
3:00 PM88 °FScattered clouds.10 mph52%29.95 "HgN/A
2:00 PM88 °FScattered clouds.8 mph49%29.98 "HgN/A
Weather by CustomWeather, © 2015

See weather overviewHow to use our weather pages